Weather in Frolovka

Russia / Primorsky Krai     43°12′33″N   133°16′05″E
temp.,
°C
wind,
m/s
gust,
m/s
humid.,
%
clouds,
%
prec.,
mm/h
press.,
hPa
HPBL,
m
24 may, tue
tue2401:00+8s1192100 0.0 101421
04:00+8sse1191100 0.0 101317
07:00+11sw1195100 0.8 101367
10:00+16sw257358 1.3 1012537
13:00+21s4657100 0.6 1011921
16:00+24ssw465069 0.6 10091000
19:00+19ssw3670100 0.1 1009449
22:00+13ssw1297100 0.3 101023
25 may, wed
wed2501:00+11ssw119896 0.0 101024
04:00+11ne119779 0.0 100910
07:00+13n11925 0.0 100952
10:00+21wsw11565 0.0 1007524
13:00+27sw233543 0.0 10051405
16:00+27ssw43325 0.0 10042391
19:00+22ssw355469 0.0 1004420
22:00+13se1191100 0.0 100711
26 may, thu
thu2601:00+11se1192100 0.0 100717
04:00+10se1192100 0.0 100716
07:00+12ene1180100 0.0 100766
10:00+20ese1547100 0.0 1005892
13:00+22sse4831100 0.0 10041430
16:00+19s4852100 0.3 10041204
19:00+13e1397100 8.4 1004181
22:00+12ese119899 9.7 100432
27 may, fri
fri2701:00+12ene1197100 0.2 100321
04:00+12e119712 0.4 100322
07:00+11ese119686 0.1 100371
10:00+17ene126344 0.1 1001917
13:00+22sw1236100 0.0 9992169
16:00+21ssw3442100 0.1 9961814
19:00+15sse2390100 2.1 99774
22:00+12s1197100 3.6 99834
28 may, sat
sat2801:00+11wnw1199100 0.1 99937
04:00+11w1199100 1.0 99994
07:00+11w1198100 0.1 1000128
10:00+15wsw127986 0.2 1000662
13:00+21sw135614 0.6 10001292
16:00+24wnw463462 0.9 9992795
19:00+20wsw365654 0.0 1000517
22:00+12s21931 0.0 100426